Hourly Data Report for March 16, 2020

MAYO A
YUKON TERRITORY
Current Station Operator: NAVCAN

63°36'59.000" N
135°52'06.000" W
503.80 m
2100701
71965
YMA

Download Data

Hourly Data (March 2020)
Hourly Data Report for March 16, 2020
TIME
LST
Temp Definition
°C
Dew Point Definition
°C
Rel Hum Definition
%
Precip. Amount Definition
mm

Wind Dir Definition
10's deg

Wind Spd Definition
km/h
Visibility Definition
km
Stn Press Definition
kPa
Hmdx Definition


Wind Chill Definition


Weather Definition


00:00 -6.3 -12.8 60   2 9 32.2 96.59   -11 LegendNANA
01:00 -6.6 -12.8 62   1 8 32.2 96.51   -10 Mostly Cloudy
02:00 -7.7 -13.2 65   1 12 32.2 96.45   -13 LegendNANA
03:00 -12.2 -16.2 73   8 7 32.2 96.40   -17 LegendNANA
04:00 -15.3 -16.8 88   36 2 32.2 96.39   -17 Mostly Cloudy
05:00 -14.5 -16.2 87   29 3 32.2 96.28   -17 LegendNANA
06:00 -14.3 -16.5 83   0 1 32.2 96.30   -15 LegendNANA
07:00 -14.8 -16.9 84   28 5 32.2 96.33   -18 Cloudy
08:00 -15.5 -17.6 84   11 4 32.2 96.32   -18 LegendNANA
09:00 -14.2 -16.4 83   36 2 32.2 96.34   -16 LegendNANA
10:00 -10.9 -14.3 76   33 4 32.2 96.35   -13 Mainly Clear
11:00 -7.7 -13.0 66   6 4 32.2 96.36   -10 LegendNANA
12:00 -3.4 -10.8 57   22 7 32.2 96.39   -6 LegendNANA
13:00 -0.6 -8.9 54   23 18 32.2 96.36   -6 Mostly Cloudy
14:00 -0.8 -8.8 55   21 15 32.2 96.42   -5 LegendNANA
15:00 -0.2 -9.2 51   21 14 32.2 96.46   -4 LegendNANA
16:00 -0.5 -9.1 52   20 14 32.2 96.49   -5 Mostly Cloudy
17:00 0.1 -9.1 50   26 9 32.2 96.54     LegendNANA
18:00 -0.9 -9.1 54   23 9 32.2 96.57   -4 LegendNANA
19:00 -1.9 -9.7 56   27 13 32.2 96.63   -6 Cloudy
20:00 -2.3 -9.8 57   25 8 32.2 96.64   -5 LegendNANA
21:00 -4.3 -10.2 63   18 4 32.2 96.64   -6 LegendNANA
22:00 -9.0 -12.7 74   36 1 32.2 96.65   -10 Mainly Clear
23:00 -8.7 -10.9 85   30 4 32.2 96.69   -11 LegendNANA

Notes on Data Quality.

Legend

  • E = Estimated
  • M = Missing
  • NA = Not Available*
  • [empty] = Indicates an unobserved value
Date modified: